Weather History for KAJO - August, 2013

Change the Weather History Date:

Sunday, August 4, 2013

  Actual Average (KONT) Record (KONT)
Temperature  
Mean Temperature 66 °F 79 °F  
Max Temperature 84 °F 94 °F 104 °F (1998)
Min Temperature 50 °F 64 °F 58 °F (2002)
Degree Days  
Heating Degree Days 0 0  
Month to date heating degree days 0  
Since 1 June heating degree days 5  
Since 1 July heating degree days 0  
Cooling Degree Days 2 14  
Month to date cooling degree days 56  
Year to date cooling degree days 840  
Since 1 June cooling degree days 674  
Growing Degree Days 16 (Base 50)    
Moisture  
Dew Point 57 °F    
Average Humidity 83    
Maximum Humidity 100    
Minimum Humidity 40    
Precipitation  
Precipitation 0.00 in 0.01 in 0.02 in (1961)
Month to date precipitation 0.02  
Year to date precipitation 10.49  
Since 1 July precipitation 0.11  
Snow  
Snow 0.00 in - - ()
Month to date snowfall  
Year to date snowfall  
Since 1 July snowfall  
Snow Depth -    
Sea Level Pressure  
Sea Level Pressure 29.97 in    
Wind  
Wind Speed 3 mph (WNW)    
Max Wind Speed 14 mph    
Max Gust Speed 20 mph    
Visibility 6 miles    
Events      
T = Trace of Precipitation, MM = Missing Value Source: NWS Daily Summary

Daily Weather History Graph

Daily Weather History Graph

Search for Another Location

Airport or City:

Trip Planner

Search our weather history database for the weather conditions in past years. The results will help you decide how hot, cold, wet, or windy it might be!

Date:

Astronomy

Aug. 04, 2013 Rise Set
Actual Time 6:04 AM PDT 7:47 PM PDT
Civil Twilight 5:37 AM PDT 8:15 PM PDT
Nautical Twilight 5:04 AM PDT 8:47 PM PDT
Astronomical Twilight 4:30 AM PDT 9:22 PM PDT
Moon 4:10 AM PDT (8/4) 6:14 PM PDT (8/4)
Length of Visible Light 14h 37m
Length of Day
13h 43m
Waning Crescent, 4% of the Moon is Illuminated
Aug 4
Waning Crescent
Aug 6
New
Aug 14
First Quarter
Aug 20
Full
Aug 28
Last Quarter

Hourly Weather History & Observations

Time (PDT) Temp. Heat Index Dew Point Humidity Pressure Visibility Wind Dir Wind Speed Gust Speed Precip Events Conditions
12:56 AM 61.0 °F - 59.9 °F 96% 29.96 in 9.0 mi West 4.6 mph - N/A   Clear
1:56 AM 59.9 °F - 59.9 °F 100% 29.97 in 7.0 mi West 5.8 mph - N/A   Clear
2:56 AM 59.9 °F - 59.9 °F 100% 29.96 in 6.0 mi West 4.6 mph - N/A   Clear
3:56 AM 54.0 °F - 54.0 °F 100% 29.96 in 1.0 mi Calm Calm - N/A   Clear
4:05 AM 53.6 °F - 53.6 °F 100% 29.97 in 1.8 mi Calm Calm - N/A   Clear
4:13 AM 53.6 °F - 53.6 °F 100% 29.97 in 1.2 mi Calm Calm - N/A   Clear
4:17 AM 55.4 °F - 55.4 °F 100% 29.97 in 2.0 mi Calm Calm - N/A   Clear
4:33 AM 55.4 °F - 55.4 °F 100% 29.98 in 4.0 mi Calm Calm - N/A   Clear
4:56 AM 52.9 °F - 52.9 °F 100% 29.96 in 7.0 mi Calm Calm - N/A   Clear
5:13 AM 51.8 °F - 51.8 °F 100% 29.98 in 1.8 mi Calm Calm - N/A   Clear
5:20 AM 53.6 °F - 53.6 °F 100% 29.99 in 1.0 mi Calm Calm - N/A   Clear
5:29 AM 53.6 °F - 53.6 °F 100% 29.99 in 1.0 mi Calm Calm - N/A   Mist
5:33 AM 53.6 °F - 53.6 °F 100% 29.99 in 1.5 mi Calm Calm - N/A   Mostly Cloudy
5:36 AM 53.6 °F - 53.6 °F 100% 29.99 in 4.0 mi Calm Calm - N/A   Scattered Clouds
5:44 AM 53.6 °F - 53.6 °F 100% 29.99 in 7.0 mi Calm Calm - N/A   Mostly Cloudy
5:56 AM 50.9 °F - 50.9 °F 100% 29.98 in 4.0 mi Calm Calm - N/A   Mostly Cloudy
6:48 AM 57.2 °F - 57.2 °F 100% 30.00 in 6.0 mi Calm Calm - N/A   Overcast
6:56 AM 57.9 °F - 57.9 °F 100% 29.99 in 2.5 mi Calm Calm - N/A   Overcast
7:04 AM 59.0 °F - 59.0 °F 100% 30.00 in 1.2 mi Calm Calm - N/A   Overcast
7:16 AM 60.8 °F - 60.8 °F 100% 30.00 in 2.0 mi Calm Calm - N/A   Overcast
7:24 AM 60.8 °F - 60.8 °F 100% 30.00 in 2.5 mi Calm Calm - N/A   Overcast
7:56 AM 59.9 °F - 59.9 °F 100% 30.01 in 2.5 mi Calm Calm - N/A   Overcast
8:11 AM 60.8 °F - 60.8 °F 100% 30.02 in 3.0 mi Calm Calm - N/A   Overcast
8:25 AM 60.8 °F - 60.8 °F 100% 30.02 in 4.0 mi Calm Calm - N/A   Overcast
8:56 AM 63.0 °F - 63.0 °F 100% 30.01 in 6.0 mi Calm Calm - N/A   Overcast
9:30 AM 66.2 °F - 60.8 °F 83% 30.02 in 7.0 mi Calm Calm - N/A   Partly Cloudy
9:56 AM 68.9 °F - 59.9 °F 73% 30.01 in 8.0 mi Calm Calm - N/A   Clear
10:56 AM 73.9 °F - 61.0 °F 64% 29.98 in 10.0 mi NW 6.9 mph - N/A   Clear
11:56 AM 79.0 °F - 59.9 °F 52% 29.97 in 10.0 mi West 8.1 mph - N/A   Clear
12:56 PM 82.9 °F 82.6 °F 57.9 °F 42% 29.96 in 10.0 mi West 10.4 mph - N/A   Clear
1:56 PM 83.8 °F 83.3 °F 57.9 °F 41% 29.94 in 10.0 mi West 13.8 mph 19.6 mph N/A   Clear
2:56 PM 83.8 °F 83.1 °F 56.8 °F 40% 29.92 in 10.0 mi WNW 13.8 mph - N/A   Clear
3:56 PM 83.8 °F 83.1 °F 56.8 °F 40% 29.91 in 10.0 mi WNW 13.8 mph - N/A   Clear
4:56 PM 81.9 °F 81.8 °F 57.9 °F 44% 29.90 in 10.0 mi WNW 12.7 mph - N/A   Clear
5:56 PM 79.9 °F - 54.9 °F 42% 29.90 in 10.0 mi WNW 13.8 mph - N/A   Clear
6:56 PM 77.9 °F - 55.9 °F 47% 29.90 in 10.0 mi West 9.2 mph - N/A   Clear
7:56 PM 73.9 °F - 55.9 °F 53% 29.92 in 10.0 mi West 9.2 mph - N/A   Clear
8:56 PM 70.9 °F - 57.9 °F 63% 29.94 in 10.0 mi WNW 6.9 mph - N/A   Clear
9:56 PM 68.0 °F - 57.9 °F 70% 29.96 in 10.0 mi WNW 4.6 mph - N/A   Clear
10:56 PM 64.9 °F - 57.9 °F 78% 29.96 in 10.0 mi West 5.8 mph - N/A   Clear
11:56 PM 63.9 °F - 57.9 °F 81% 29.96 in 10.0 mi WSW 5.8 mph - N/A   Clear